AirNav   Everest Fuels
 
 965 users online  

85MO Rogersville Remote Fuel Site Heliport
Rogersville, Missouri, USA

GOING TO ROGERSVILLE?


FAA INFORMATION EFFECTIVE 21 MAY 2020

Location

FAA Identifier: 85MO
Lat/Long: 37-07-03.4100N 093-01-46.7400W
37-07.056833N 093-01.779000W
37.1176139,-93.0296500
(estimated)
Elevation: 1475 ft. / 450 m (estimated)
From city: 1 mile E of ROGERSVILLE, MO
Time zone: UTC -5 (UTC -6 during Standard Time)
Zip code: 65652

Heliport Operations

Heliport use: Private use. Permission required prior to landing
Activation date: 09/2015
Control tower: no
ARTCC: KANSAS CITY CENTER
FSS: COLUMBIA FLIGHT SERVICE STATION
Attendance: UNATTNDED
Wind indicator: yes
Segmented circle: no

Heliport Communications

WX ASOS at SGF (19 nm NW): PHONE 417-863-6158

Nearby radio navigation aids

VOR radial/distance  VOR name  Freq  Var
DGDr307/9.2DOGWOOD VORTAC109.4001E
SGFr131/20.4SPRINGFIELD VORTAC116.9004E

Heliport Services

Runway Information

Helipad H1

Dimensions: 40 x 40 ft. / 12 x 12 m
Surface: concrete/gravel
Runway edge lights: PERI
Latitude: 37-07.056833N
Longitude: 093-01.779000W
Traffic pattern: leftleft

Heliport Ownership and Management from official FAA records

Ownership: Privately-owned
Owner: AIR EVAC EMS, INC
100 BOARDWALK SPRINGS PL. STE 250
O'FALLON, MO 63368
Phone 317-370-4813
Manager: DOUGLAS NASH
1001 BOARDWALK SPRINGS PL. STE 250
O'FALLON, MO 63368
Phone 317-370-4813

Additional Remarks

FOR CD CTC SPRINGFIELD APCH AT 417-868-5620/5619.

Instrument Procedures

There are no published instrument procedures at 85MO.

Some nearby airports with instrument procedures:

3DW - Downtown Airport (12 nm NW)
KSGF - Springfield-Branson National Airport (19 nm NW)
KAOV - Ava Bill Martin Memorial Airport (19 nm SE)
KFWB - Branson West Municipal Airport - Emerson Field (31 nm SW)
KPLK - M Graham Clark Downtown Airport (31 nm S)
 
Loc | Ops | Rwys | IFR | FBO | Links
Com | Nav | Svcs | Stats | Notes
Aerial photo
No photo
 
Airport distance calculator
Flying to Rogersville Remote Fuel Site Heliport? Find the distance to fly.

From to 85MO

Sunrise and sunset
Times for 06-Jun-2020
 Local
(UTC-5)
 Zulu
(UTC)
Morning civil twilight05:2210:22
Sunrise05:5310:53
Sunset20:2901:29
Evening civil twilight20:5901:59

Current date and time
Zulu (UTC)  06-Jun-2020 13:52:32
Local (UTC-5)  06-Jun-2020 08:52:32
 
METAR
KSGF 
18nm W 
061252Z 13006KT 10SM CLR 26/23 A3001 RMK AO2 SLP148 T02560233
KFWB 
31nm SW 
061335Z AUTO 12005KT 10SM CLR 27/25 A3005 RMK AO2
KBBG 
36nm S 
061245Z 00000KT 1/2SM BR OVC002 23/23 A3005
TAF
KSGF 
18nm W 
061128Z 0612/0712 00000KT P6SM SKC FM070300 13005KT P6SM SKC
NOTAMs
Click for the latest NOTAMs
NOTAMs are issued by the DoD/FAA and will open in a separate window not controlled by AirNav.

 

 
 

Would you like to see your business listed on this page?

 If your business provides an interesting product or service to pilots, flight crews, aircraft, or users of the Rogersville Remote Fuel Site Heliport, you should consider listing it here.  To start the listing process, click on the button below
 
Add a business
 

Other Pages about Rogersville Remote Fuel Site Heliport

Update a link
 
Copyright © AirNav, LLC. All rights reserved. Privacy Policy  Contact